Location: Alston School (historical)
(35.5076°N, 89.8251°W)
Time: 02:16:58
(UTC+00:00)

Cosmos 1743 - Pass Details

Date: 09 December 2025
Orbit: 399 x 406 km, 82.5° (Epoch: 21 January)

Event Time Altitude Azimuth Distance (km) Brightness Sun altitude
Rises 23:14:33 0° 358° (N) 2,381 5.9 -6.0°
Reaches altitude 10° 23:16:38 10° 3° (N) 1,508 4.8 -6.4°
Maximum altitude 23:19:51 55° 82° (E) 508 2.3 -7.0°
Drops below altitude 10° 23:23:01 10° 161° (SSE) 1,484 5.1 -7.6°
Sets 23:25:03 0° 166° (SSE) 2,336 6.1 -7.9°
